CAPE
370 321 679 30 74 43 45 76 136 122 130 131 154 215 97 189 274 35 167 50 286 559 867 1178 1850 1929 1861 1955 1713 1701 1702 1761 1942 1829 1795 1929 1960 1891 1853 1911 1934 1821 1882 1804 1819 1908 2280 2026 1889
432 537 411 13 21 39 57 93 111 121 86 77 79 75 73 126 292 242 177 202 534 703 710 1008 2038 2111 1835 1827 1835 1664 1627 1783 1814 1991 1953 1866 1682 1635 1835 2011 1998 1785 1689 1898 2169 2137 2066 1879 1820
677 373 7 19 16 53 62 94 116 94 75 62 16 55 40 252 137 119 87 427 740 713 795 1051 1565 1648 1843 1811 1610 1663 1695 1838 1883 1853 1845 1815 1778 1723 1857 1962 1804 2208 2307 2243 2137 2175 2075 1855 1938
637 15 8 25 16 31 89 126 118 109 76 50 67 130 217 214 226 172 291 493 629 821 1011 1422 1584 1579 1686 1696 1707 1836 1650 1583 1371 1502 1987 2111 2106 1951 1874 1848 1846 2243 2142 1792 1656 1737 1779 1750 1584
0 0 0 23 10 26 71 95 116 101 80 65 0 42 181 301 285 294 273 441 381 539 710 937 1068 1360 1630 1610 1684 1573 1716 1739 1613 1703 2005 2061 1779 1936 1890 1872 2252 2029 1872 2140 1945 1791 1421 1393 1510
0 0 0 0 1 6 33 130 94 57 69 26 1 50 249 338 337 312 310 316 336 376 478 570 552 827 1479 1334 1394 1540 1673 1568 1621 1749 2010 2111 2017 2056 1896 1788 1818 2089 2221 1943 1830 1544 1306 1260 1583
5 0 0 0 6 17 41 57 63 48 61 33 0 32 249 393 410 461 373 444 387 294 202 326 195 253 743 1216 1134 1316 1441 1527 1791 1929 2052 2108 2095 2152 2256 2011 2099 1882 1917 2008 1837 1786 1602 1527 1691
14 0 0 0 2 1 53 33 55 64 45 31 0 0 80 252 401 461 457 258 174 227 197 189 187 219 216 498 983 957 1037 1494 1637 1398 1566 2018 1991 2144 2196 2436 2140 1949 1914 1758 1802 1830 2008 2176 2272
252 0 0 0 0 11 27 32 61 45 46 33 33 0 54 253 317 328 282 130 15 104 205 144 150 162 269 246 233 80 1 791 1133 1334 1692 1453 1237 1397 1619 1865 1922 1767 1578 1616 1809 2129 2427 2538 2611
0 0 0 14 20 1 4 64 49 24 45 59 81 71 118 199 250 217 125 29 0 0 0 39 110 114 154 585 152 190 578 476 299 430 585 790 828 1016 846 1177 1792 1755 1727 1974 2067 2150 1708 1414 1208
239 1 77 102 28 19 5 108 119 26 45 38 70 40 64 72 66 51 14 2 0 4 21 17 24 30 112 147 119 168 139 94 88 193 254 317 433 593 487 560 781 688 803 540 716 829 1005 671 1040
223 327 65 313 102 90 89 94 70 39 77 3 61 27 52 38 14 4 0 0 0 11 42 25 12 51 70 115 114 115 18 24 147 138 214 296 297 231 228 317 289 398 520 506 718 736 1063 1019 1029
368 379 149 67 104 44 91 108 150 17 51 54 52 13 20 0 0 0 0 0 0 0 24 38 27 39 36 53 6 16 94 207 284 319 341 297 237 241 276 175 274 318 404 483 734 930 1042 1125 695
232 304 125 117 55 49 38 68 78 72 44 51 36 18 12 5 0 0 0 0 0 1 15 22 25 31 25 72 33 1 21 77 160 229 388 271 341 376 363 188 210 171 252 580 837 1206 975 784 431
290 184 133 46 18 86 43 67 14 18 43 49 22 17 16 0 0 0 0 0 0 0 0 23 42 47 10 96 219 136 85 176 183 297 321 424 501 349 152 188 211 163 487 785 1189 1111 1227 663 383
57 66 10 52 3 17 12 4 8 22 37 51 2 4 14 7 2 0 0 0 0 0 0 0 0 0 14 28 99 208 177 263 341 346 286 421 435 346 168 223 72 363 724 1305 1238 704 467 871 844
39 13 23 45 35 26 40 0 4 14 28 32 33 16 10 7 11 1 0 0 0 0 0 0 0 7 7 49 106 115 138 277 374 339 257 254 308 284 48 204 421 554 850 1312 1230 1275 1462 1568 1440
0 17 32 61 91 145 115 27 1 17 18 18 11 19 11 0 9 2 0 0 8 0 0 0 0 5 21 63 127 193 263 215 341 356 287 222 212 9 177 378 997 715 578 816 729 1174 1227 1591 1076
0 1 11 74 154 188 87 20 0 5 10 12 25 24 14 1 0 2 0 0 16 25 27 0 0 8 44 130 180 304 296 223 384 364 349 329 280 105 314 626 1004 730 753 775 740 1138 1206 1318 1278
2 17 38 193 246 172 137 108 52 16 24 10 20 17 12 7 6 33 12 6 38 44 24 27 0 0 28 117 222 262 236 296 272 358 383 421 204 256 419 660 884 942 740 599 692 1017 1102 1020 808
2 15 77 159 270 207 118 86 40 88 50 10 0 7 0 7 17 51 58 31 39 61 64 46 29 0 13 105 283 204 198 312 319 356 442 423 330 305 397 487 485 882 869 751 973 1087 1291 971 1004
0 1 123 353 169 68 53 47 5 18 44 0 0 3 10 10 27 40 75 45 62 79 81 92 88 83 54 80 266 220 228 200 264 369 409 433 458 594 541 615 772 863 765 552 705 1259 1028 1200 973
0 37 336 329 217 54 14 2 5 0 1 1 3 1 3 19 51 57 92 73 56 58 95 112 162 213 167 114 195 340 231 282 203 351 392 367 344 474 644 821 726 979 1115 803 473 999 1418 1043 1028
189 427 471 409 170 34 0 3 0 1 1 2 3 12 1 12 55 34 68 95 64 50 74 108 152 230 234 241 108 268 296 247 309 338 358 396 486 445 622 767 752 824 839 908 669 944 1249 1229 923
223 242 138 164 113 0 0 0 2 0 0 6 0 21 21 8 23 21 52 86 95 85 102 106 139 178 231 204 187 173 328 263 205 319 444 283 358 325 392 785 771 848 830 885 688 980 1034 1070 990
25 30 10 0 0 0 15 4 10 17 12 38 0 0 33 13 2 27 35 87 123 176 153 209 191 179 198 265 212 173 337 390 188 222 396 314 360 487 501 640 694 755 886 892 841 870 843 801 915
0 0 0 0 0 0 0 0 9 157 116 28 1 0 8 60 35 20 22 95 116 160 182 265 252 229 148 190 300 263 430 517 457 432 429 429 376 324 483 660 760 840 880 792 818 886 889 876 840
0 0 0 0 0 0 0 1 0 149 188 129 38 45 42 73 66 31 18 54 96 144 163 214 331 351 258 317 347 330 276 442 489 458 503 434 377 304 409 529 651 868 855 810 888 772 712 762 736
0 0 0 0 0 0 0 0 8 51 255 192 136 92 125 156 210 172 95 74 47 91 157 200 283 349 528 605 574 516 488 422 616 552 491 523 450 339 152 373 482 659 823 844 789 848 795 850 864
0 0 0 0 0 0 0 0 28 109 210 315 263 235 141 72 175 204 150 169 132 56 74 169 203 225 210 288 703 812 928 941 826 721 633 394 476 449 419 430 468 401 482 540 767 592 1184 1021 888
CIN
-146 -120 -53 -59 -66 -57 -21 -21 -64 -37 -62 -69 -94 -90 -93 -115 -77 -45 -126 -60 -76 -38 -16 -7 -1 -0 -0 -0 -0 -0 -0 -0 -0 -0 -0 -0 -0 -0 -0 -0 -0 -0 -0 -0 -0 -0 -0 -0 -0
-92 -71 -82 -23 -13 -10 -5 -11 -29 -37 -44 -60 -74 -53 -64 -75 -103 -127 -120 -94 -47 -41 -29 -17 -0 -0 -0 -0 -0 -0 -0 -0 -0 -0 -0 -0 -0 -0 -0 -0 -0 -0 -0 -0 -0 -0 -0 -0 -0
-62 -104 -37 -73 -20 -35 -29 -34 -39 -98 -75 -23 -140 -132 -21 -100 -140 -112 -149 -45 -13 -32 -29 -11 -0 -0 -0 -0 -0 -0 -0 -0 -0 -0 -0 -0 -0 -0 -0 -1 -0 -0 -0 -0 -0 -0 -0 -0 -2
-89 -291 -5 -9 -27 -39 -36 -54 -108 -94 -65 -18 -144 -116 -81 -89 -96 -118 -88 -37 -16 -14 -15 -3 -0 -0 -0 -0 -0 -0 -0 -0 -0 -0 -0 -0 -0 -0 -0 -0 -0 -0 -0 -0 -0 -0 -0 -5 -22
-0 -0 -0 -17 -11 -29 -35 -48 -62 -84 -113 -132 -0 -141 -73 -48 -67 -52 -85 -40 -48 -34 -15 -13 -8 -2 -1 -3 -1 -2 -0 -0 -0 -2 -2 -0 -0 -0 -0 -0 -0 -0 -0 -0 -0 -0 -10 -17 -20
-0 -0 -0 -0 -0 -42 -23 -50 -25 -76 -154 -170 -5 -138 -46 -31 -57 -45 -66 -67 -52 -30 -17 -22 -3 -0 -2 -5 -2 -0 -0 -0 -0 -0 -1 -0 -1 -0 -0 -0 -0 -0 -0 -0 -1 -1 -22 -41 -25
-70 -0 -0 -0 -99 -33 -47 -28 -16 -30 -146 -147 -0 -55 -31 -13 -13 -21 -24 -18 -27 -20 -32 -32 -15 -4 -1 -3 -1 -0 -0 -0 -0 -0 -3 -1 -0 -0 -0 -0 -0 -0 -0 -0 -1 -1 -19 -47 -42
-115 -0 -0 -0 -169 -11 -48 -49 -3 -81 -150 -164 -0 -0 -81 -37 -3 -2 -2 -17 -32 -11 -15 -36 -11 -0 -1 -2 -4 -0 -0 -0 -0 -0 -0 -1 -0 -0 -0 -0 -0 -0 -0 -1 -2 -2 -10 -14 -24
-122 -0 -0 -0 -0 -44 -61 -45 -93 -147 -158 -130 -172 -0 -151 -77 -17 -2 -12 -40 -71 -14 -3 -11 -19 -29 -22 -33 -36 -15 -12 -1 -0 -1 -3 -21 -13 -18 -4 -3 -0 -3 -13 -10 -6 -5 -16 -17 -30
-0 -0 -0 -114 -150 -14 -58 -57 -50 -129 -106 -169 -199 -163 -123 -82 -34 -39 -61 -87 -0 -0 -0 -41 -22 -29 -35 -25 -30 -32 -34 -16 -51 -36 -41 -25 -30 -48 -56 -38 -14 -11 -18 -12 -16 -38 -98 -112 -193
-63 -5 -64 -88 -145 -102 -17 -48 -75 -78 -86 -131 -200 -149 -127 -109 -86 -107 -138 -18 -0 -3 -6 -10 -14 -21 -32 -44 -42 -31 -33 -36 -97 -88 -55 -47 -67 -62 -69 -81 -78 -92 -124 -170 -169 -197 -237 -167 -249
-64 -20 -41 -21 -54 -113 -52 -61 -61 -56 -53 -33 -186 -137 -130 -131 -116 -73 -0 -0 -0 -4 -2 -6 -0 -25 -93 -40 -35 -29 -57 -172 -130 -98 -37 -31 -59 -84 -118 -121 -143 -11 -3 -6 -63 -102 -109 -80 -69
-42 -11 -31 -51 -53 -50 -67 -54 -54 -111 -156 -203 -186 -118 -126 -0 -0 -0 -0 -0 -0 -11 -18 -0 -6 -33 -8 -61 -75 -49 -81 -78 -83 -72 -81 -100 -77 -88 -122 -141 -24 -8 -35 -75 -44 -43 -238 -203 -205
-63 -31 -29 -63 -78 -73 -101 -103 -92 -58 -167 -175 -174 -137 -119 -83 -0 -0 -0 -0 -0 -9 -13 -5 -3 -10 -91 -83 -92 -66 -170 -22 -32 -35 -48 -61 -82 -50 -80 -86 -45 -34 -20 -37 -34 -47 -62 -173 -38
-63 -61 -67 -71 -9 -84 -108 -64 -4 -138 -167 -162 -157 -155 -123 -0 -0 -0 -0 -0 -0 -0 -8 -20 -3 -12 -13 -105 -90 -112 -137 -117 -84 -21 -58 -85 -62 -92 -134 -56 -51 -78 -27 -25 -45 -237 -66 -173 -71
-87 -103 -81 -81 -33 -59 -38 -83 -16 -131 -154 -156 -28 -47 -145 -138 -31 -0 -0 -0 -0 -0 -0 -0 -0 -0 -121 -202 -158 -101 -91 -64 -66 -72 -61 -68 -74 -75 -82 -68 -59 -32 -40 -80 -168 -91 -29 -38 -34
-81 -67 -70 -73 -95 -57 -36 -0 -15 -127 -135 -137 -132 -131 -134 -81 -30 -6 -0 -0 -0 -0 -0 -0 -0 -35 -14 -207 -130 -111 -42 -34 -48 -87 -79 -58 -145 -108 -62 -43 -48 -58 -25 -42 -41 -46 -52 -38 -58
-0 -44 -13 -106 -116 -58 -55 -98 -2 -90 -149 -123 -116 -112 -99 -3 -91 -25 -0 -0 -18 -0 -0 -0 -0 -73 -41 -19 -49 -77 -32 -17 -67 -58 -65 -75 -77 -180 -18 -28 -57 -90 -17 -32 -48 -165 -130 -151 -61
-0 -2 -10 -95 -128 -91 -118 -79 -0 -44 -52 -98 -67 -133 -115 -13 -0 -1 -0 -0 -31 -45 -53 -0 -0 -42 -41 -126 -80 -54 -36 -28 -34 -60 -73 -68 -47 -34 -38 -27 -41 -33 -53 -45 -52 -154 -141 -98 -27
-186 -139 -133 -102 -116 -74 -85 -104 -76 -85 -102 -104 -35 -64 -146 -99 -77 -18 -8 -41 -47 -36 -45 -57 -0 -0 -53 -143 -71 -45 -34 -26 -35 -32 -22 -41 -34 -20 -30 -53 -49 -40 -32 -50 -69 -59 -100 -56 -55
-239 -203 -164 -63 -128 -98 -97 -121 -239 -161 -147 -104 -2 -31 -0 -107 -55 -27 -25 -70 -93 -60 -38 -40 -62 -0 -55 -138 -98 -61 -117 -95 -108 -75 -74 -49 -50 -12 -15 -32 -83 -37 -56 -78 -49 -42 -34 -85 -59
-0 -62 -138 -107 -36 -28 -120 -75 -71 -186 -186 -6 -0 -37 -93 -31 -53 -41 -19 -112 -111 -91 -83 -41 -43 -80 -27 -66 -105 -113 -62 -51 -61 -46 -63 -43 -87 -39 -124 -41 -33 -25 -41 -49 -136 -70 -55 -33 -111
-0 -153 -150 -98 -41 -57 -93 -24 -66 -3 -87 -193 -259 -116 -54 -59 -42 -67 -44 -30 -88 -50 -33 -135 -44 -45 -59 -35 -128 -69 -81 -49 -49 -40 -30 -33 -33 -29 -139 -31 -13 -27 -13 -23 -106 -92 -21 -38 -30
-178 -131 -101 -74 -55 -55 -0 -89 -0 -13 -27 -129 -178 -208 -42 -77 -50 -33 -34 -34 -55 -54 -177 -212 -70 -55 -61 -29 -82 -90 -51 -52 -47 -43 -26 -25 -31 -19 -161 -130 -36 -24 -10 -13 -14 -97 -22 -20 -24
-140 -93 -85 -51 -52 -0 -0 -0 -32 -0 -0 -40 -0 -325 -181 -115 -50 -33 -67 -51 -70 -217 -205 -190 -85 -27 -9 -68 -44 -114 -69 -55 -61 -54 -27 -28 -38 -89 -189 -52 -40 -27 -11 -6 -50 -24 -21 -24 -77
-176 -111 -124 -0 -0 -0 -225 -165 -81 -249 -270 -102 -0 -0 -257 -132 -92 -62 -105 -73 -92 -294 -161 -272 -42 -110 -86 -19 -66 -133 -74 -41 -98 -81 -33 -34 -50 -40 -178 -130 -54 -34 -16 -11 -85 -16 -30 -56 -82
-0 -0 -0 -0 -0 -0 -0 -0 -10 -222 -153 -70 -20 -0 -186 -151 -110 -78 -60 -335 -297 -279 -242 -299 -71 -100 -40 -39 -24 -109 -94 -55 -54 -58 -40 -38 -39 -190 -100 -52 -110 -82 -31 -23 -107 -87 -75 -19 -53
-0 -0 -0 -0 -0 -0 -0 -78 -0 -92 -130 -190 -343 -356 -344 -87 -54 -55 -73 -93 -255 -251 -149 -74 -266 -270 -125 -31 -36 -39 -51 -81 -99 -78 -44 -66 -61 -67 -226 -210 -180 -149 -135 -36 -120 -76 -101 -37 -61
-0 -0 -0 -0 -0 -0 -0 -0 -82 -68 -94 -125 -80 -218 -246 -169 -76 -59 -78 -29 -48 -267 -192 -125 -131 -107 -227 -163 -89 -119 -75 -55 -22 -28 -96 -50 -55 -62 -259 -235 -200 -154 -132 -100 -114 -103 -104 -86 -40
-0 -0 -0 -0 -0 -0 -0 -0 -44 -44 -48 -100 -67 -87 -91 -261 -124 -62 -71 -43 -40 -48 -240 -238 -132 -71 -68 -271 -151 -129 -106 -72 -63 -39 -25 -47 -56 -40 -61 -66 -78 -205 -173 -128 -41 -101 -61 -76 -27
Wind_Speed
10 1 3 nan nan nan nan nan 1 4 6 6 5 2 nan 8 2 nan 6 nan 11 9 5 11 13 14 11 11 10 11 12 12 11 11 12 13 16 18 14 16 13 13 9 9 8 8 8 7 6
5 4 5 nan nan nan nan nan 5 6 nan nan nan nan nan 6 4 5 6 5 6 6 7 4 9 14 12 10 10 12 13 12 10 8 5 15 15 17 20 17 14 10 8 10 7 10 9 6 6
7 4 nan nan nan nan nan nan 9 nan nan nan nan nan nan 8 8 7 nan 5 3 6 10 10 10 14 12 10 11 8 8 7 8 8 8 11 15 17 21 18 11 10 7 9 9 10 7 7 7
7 nan nan nan nan nan nan 8 11 12 nan nan nan 11 11 8 7 4 8 8 5 4 11 14 14 17 15 11 11 10 9 8 9 9 14 16 19 16 20 22 19 12 2 8 9 7 4 4 6
nan nan nan nan nan nan nan nan 12 12 nan nan nan nan 9 12 15 11 10 8 6 7 6 14 15 19 13 11 11 12 13 12 14 13 17 18 17 18 17 17 13 6 2 6 8 6 3 4 5
nan nan nan nan nan nan nan 10 nan nan nan nan nan nan 8 10 12 10 11 8 8 8 7 20 25 25 13 13 13 17 18 17 16 16 15 17 16 20 18 23 10 5 4 3 5 4 3 5 8
nan nan nan nan nan nan nan nan nan nan nan nan nan nan 5 5 7 12 12 9 8 8 7 5 17 20 23 16 11 13 16 15 16 16 16 16 16 18 13 19 7 2 3 3 4 5 6 9 9
nan nan nan nan nan nan nan nan nan nan nan nan nan nan nan 3 6 10 10 10 8 8 7 7 5 4 12 14 8 15 14 13 13 16 20 22 18 17 16 9 7 3 2 4 5 8 10 10 16
6 nan nan nan nan nan nan nan nan nan nan nan nan nan nan 10 7 7 8 10 nan 8 7 6 8 10 6 4 7 nan nan 1 15 17 20 16 4 8 9 8 5 3 4 7 9 10 11 12 18
nan nan nan nan nan nan nan nan nan nan nan nan nan nan 11 7 3 4 3 nan nan nan nan nan 11 12 9 12 14 11 9 11 7 10 9 2 8 9 6 11 10 7 6 8 9 10 11 14 11
10 nan nan 6 nan nan nan 7 1 nan nan nan nan nan nan nan nan nan nan nan nan nan nan nan nan nan 13 14 12 13 11 nan nan 2 6 14 13 9 11 12 9 8 6 12 10 10 11 13 14
9 10 nan 7 11 nan nan nan nan nan nan nan nan nan nan nan nan nan nan nan nan nan nan nan nan nan nan 15 17 16 nan nan 6 9 13 7 12 14 14 12 10 7 10 12 11 9 10 14 13
5 13 8 nan 11 nan nan 10 4 nan nan nan nan nan nan nan nan nan nan nan nan nan nan nan nan nan nan nan nan nan nan 13 12 11 11 13 15 14 11 13 9 12 13 8 6 7 8 10 12
5 11 14 8 nan nan nan nan nan nan nan nan nan nan nan nan nan nan nan nan nan nan nan nan nan nan nan nan nan nan nan nan 16 13 15 15 13 12 11 12 11 12 10 9 7 6 5 7 7
10 9 13 nan nan nan nan nan nan nan nan nan nan nan nan nan nan nan nan nan nan nan nan nan nan nan nan nan 15 10 nan 13 18 20 15 12 10 10 11 12 13 10 10 10 6 3 8 5 5
nan nan nan nan nan nan nan nan nan nan nan nan nan nan nan nan nan nan nan nan nan nan nan nan nan nan nan nan nan 18 21 13 21 23 17 13 10 9 10 13 nan 9 10 9 10 4 4 8 8
nan nan nan nan nan nan nan nan nan nan nan nan nan nan nan nan nan nan nan nan nan nan nan nan nan nan nan nan 9 10 19 19 21 22 16 12 10 9 nan 11 13 10 7 6 3 4 8 9 13
nan nan nan nan nan 19 11 nan nan nan nan nan nan nan nan nan nan nan nan nan nan nan nan nan nan nan nan nan 12 16 21 22 18 16 13 10 9 nan 5 7 12 8 6 7 6 6 8 10 13
nan nan nan nan 11 12 nan nan nan nan nan nan nan nan nan nan nan nan nan nan nan nan nan nan nan nan nan 17 14 17 19 17 16 14 12 11 11 8 5 9 10 6 5 4 4 6 7 5 1
nan nan nan 4 7 12 14 19 nan nan nan nan nan nan nan nan nan nan nan nan nan nan nan nan nan nan nan 10 12 13 12 13 17 18 15 10 10 7 5 9 11 7 7 6 6 4 4 0 1
nan nan nan 1 2 9 13 nan nan nan nan nan nan nan nan nan nan nan nan nan nan nan nan nan nan nan nan 6 10 13 16 16 13 16 16 14 7 8 7 7 7 8 6 4 6 5 3 2 5
nan nan 2 7 4 nan nan nan nan nan nan nan nan nan nan nan nan nan nan nan nan nan nan nan nan nan nan nan 9 12 12 13 13 12 13 13 9 10 10 8 6 7 8 7 4 3 1 2 5
nan nan 11 10 8 nan nan nan nan nan nan nan nan nan nan nan nan nan nan nan nan nan nan 7 5 2 5 7 7 9 13 13 13 14 12 11 14 15 12 9 7 5 8 7 3 3 2 1 2
24 25 20 11 8 nan nan nan nan nan nan nan nan nan nan nan nan nan nan nan nan nan nan 4 5 1 6 6 5 7 10 14 17 16 15 14 16 17 13 10 9 8 7 4 3 4 5 2 2
21 20 14 10 9 nan nan nan nan nan nan nan nan nan nan nan nan nan nan nan nan nan 6 7 6 4 5 6 7 7 8 12 14 15 14 15 18 18 16 10 11 11 8 7 6 6 6 4 4
nan nan nan nan nan nan nan nan nan nan nan nan nan nan nan nan nan nan nan nan 11 10 14 9 8 6 7 6 8 8 8 14 16 14 14 15 18 19 16 13 11 12 11 11 10 9 7 5 5
nan nan nan nan nan nan nan nan nan 7 13 nan nan nan nan nan nan nan nan nan 7 8 11 10 12 9 10 6 10 9 8 8 12 16 15 15 18 19 16 16 15 15 13 11 13 14 10 10 8
nan nan nan nan nan nan nan nan nan 5 7 8 nan nan nan nan nan nan nan nan nan 10 17 17 18 12 9 8 9 8 8 9 9 14 13 17 21 20 19 18 17 15 14 13 16 16 13 13 13
nan nan nan nan nan nan nan nan nan nan 3 7 10 nan 21 19 12 12 nan nan nan nan 11 10 13 23 18 9 10 10 9 9 11 11 12 17 20 21 22 21 21 19 18 16 16 14 15 14 14
nan nan nan nan nan nan nan nan nan 10 13 8 9 13 15 nan 12 11 9 8 7 nan nan 11 10 7 14 15 14 8 11 11 12 13 14 20 18 23 23 24 23 22 18 17 17 15 14 14 14
Wind_Direction
294 324 252 nan nan nan nan nan 136 221 212 197 220 255 nan 220 171 nan 249 nan 221 228 223 247 270 270 269 276 286 287 282 290 292 291 298 304 296 300 293 293 302 288 308 294 313 280 271 288 326
295 341 255 nan nan nan nan nan 210 220 nan nan nan nan nan 240 228 273 289 214 163 226 227 229 257 259 260 267 274 286 288 291 290 297 322 301 298 289 289 290 289 280 294 299 296 285 291 323 349
332 280 nan nan nan nan nan nan 261 nan nan nan nan nan nan 227 241 290 nan 301 228 237 232 233 251 249 254 261 259 283 310 294 269 287 287 291 297 290 296 293 261 263 252 263 261 270 310 342 11
339 nan nan nan nan nan nan 288 280 300 nan nan nan 245 235 223 255 273 273 271 242 299 237 232 240 238 245 261 276 281 280 286 284 293 293 302 314 301 293 293 261 255 275 266 275 294 322 26 31
nan nan nan nan nan nan nan nan 280 267 nan nan nan nan 236 219 239 260 269 266 264 255 243 205 205 234 226 244 265 281 280 287 293 296 300 301 299 293 292 268 262 314 325 268 297 320 14 66 46
nan nan nan nan nan nan nan 274 nan nan nan nan nan nan 234 241 246 235 244 248 249 259 270 227 234 169 217 239 261 271 276 284 286 291 293 301 293 297 276 282 266 41 294 305 312 342 71 23 29
nan nan nan nan nan nan nan nan nan nan nan nan nan nan 253 260 247 238 232 238 244 261 277 229 239 165 192 238 263 279 277 275 273 289 295 304 291 289 286 282 327 28 2 319 5 62 57 30 29
nan nan nan nan nan nan nan nan nan nan nan nan nan nan nan 344 275 232 226 231 239 243 265 308 308 257 162 160 239 260 236 254 279 287 299 300 281 286 270 260 76 33 48 44 61 76 49 43 48
274 nan nan nan nan nan nan nan nan nan nan nan nan nan nan 293 284 235 219 217 nan 230 229 238 244 240 246 193 241 nan nan 52 299 293 288 289 215 221 220 81 120 96 82 88 101 81 77 65 68
nan nan nan nan nan nan nan nan nan nan nan nan nan nan 278 297 321 265 219 nan nan nan nan nan 244 230 212 227 223 222 247 261 284 288 287 266 150 196 145 110 112 95 84 107 98 87 82 68 64
352 nan nan 243 nan nan nan 198 120 nan nan nan nan nan nan nan nan nan nan nan nan nan nan nan nan nan 221 222 232 220 214 nan nan 149 146 121 135 155 131 119 112 96 97 71 63 64 63 67 63
1 1 nan 247 269 nan nan nan nan nan nan nan nan nan nan nan nan nan nan nan nan nan nan nan nan nan nan 214 222 230 nan nan 207 127 138 112 138 139 138 118 106 99 79 68 71 48 79 74 69
32 36 350 nan 243 nan nan 182 190 nan nan nan nan nan nan nan nan nan nan nan nan nan nan nan nan nan nan nan nan nan nan 227 177 148 150 147 143 133 131 106 105 106 90 89 83 67 62 85 90
57 7 358 334 nan nan nan nan nan nan nan nan nan nan nan nan nan nan nan nan nan nan nan nan nan nan nan nan nan nan nan nan 174 156 151 151 134 135 123 113 115 113 105 90 76 49 76 91 78
10 7 26 nan nan nan nan nan nan nan nan nan nan nan nan nan nan nan nan nan nan nan nan nan nan nan nan nan 206 213 nan 189 180 150 159 156 156 139 127 121 117 125 103 95 61 79 84 113 115
nan nan nan nan nan nan nan nan nan nan nan nan nan nan nan nan nan nan nan nan nan nan nan nan nan nan nan nan nan 203 202 195 179 146 159 167 165 155 131 123 nan 128 108 89 69 41 96 108 91
nan nan nan nan nan nan nan nan nan nan nan nan nan nan nan nan nan nan nan nan nan nan nan nan nan nan nan nan 135 245 191 168 145 144 154 153 155 144 nan 122 126 120 109 113 82 70 70 96 104
nan nan nan nan nan 43 25 nan nan nan nan nan nan nan nan nan nan nan nan nan nan nan nan nan nan nan nan nan 151 145 140 147 142 143 152 145 141 nan 111 140 130 124 107 111 134 114 96 99 122
nan nan nan nan 43 27 nan nan nan nan nan nan nan nan nan nan nan nan nan nan nan nan nan nan nan nan nan 157 156 147 145 149 158 155 155 159 156 169 163 141 135 134 126 139 155 127 117 104 280
nan nan nan 103 48 65 68 94 nan nan nan nan nan nan nan nan nan nan nan nan nan nan nan nan nan nan nan 165 158 157 157 161 168 166 157 163 141 136 146 150 144 148 132 170 180 168 112 274 31
nan nan nan 154 359 88 89 nan nan nan nan nan nan nan nan nan nan nan nan nan nan nan nan nan nan nan nan 171 188 187 181 183 190 172 168 174 168 166 148 148 146 137 136 156 188 165 162 75 86
nan nan 227 296 208 nan nan nan nan nan nan nan nan nan nan nan nan nan nan nan nan nan nan nan nan nan nan nan 189 198 191 188 187 193 184 198 196 182 159 158 155 153 152 161 171 155 182 50 121
nan nan 253 242 224 nan nan nan nan nan nan nan nan nan nan nan nan nan nan nan nan nan nan 34 57 215 229 251 220 200 196 191 186 199 196 205 211 185 173 165 168 161 144 137 110 143 222 123 169
264 250 241 220 224 nan nan nan nan nan nan nan nan nan nan nan nan nan nan nan nan nan nan 325 344 93 251 239 227 220 183 190 196 195 196 196 205 188 182 170 171 182 169 171 208 179 201 187 198
243 244 249 223 208 nan nan nan nan nan nan nan nan nan nan nan nan nan nan nan nan nan 272 273 294 340 265 239 214 215 195 202 201 197 205 216 200 192 189 195 178 175 187 187 217 202 178 194 203
nan nan nan nan nan nan nan nan nan nan nan nan nan nan nan nan nan nan nan nan 305 289 288 291 305 296 290 257 219 216 217 209 211 200 198 211 206 196 199 203 194 190 194 216 220 193 184 195 211
nan nan nan nan nan nan nan nan nan 248 230 nan nan nan nan nan nan nan nan nan 299 291 259 255 268 278 277 290 241 222 220 229 219 214 214 211 211 204 204 212 200 207 205 223 239 220 211 202 201
nan nan nan nan nan nan nan nan nan 265 263 288 nan nan nan nan nan nan nan nan nan 295 234 247 249 278 268 276 269 238 230 228 233 244 239 214 202 203 210 217 213 220 226 229 243 240 228 219 202
nan nan nan nan nan nan nan nan nan nan 330 306 334 nan 343 333 329 332 nan nan nan nan 243 250 258 252 239 267 255 251 236 235 239 237 240 252 237 219 215 223 226 226 229 237 246 246 237 224 217
nan nan nan nan nan nan nan nan nan 279 294 318 338 321 321 nan 325 331 326 290 280 nan nan 271 287 243 200 230 243 254 273 254 232 226 228 238 249 242 233 231 231 236 242 244 250 250 246 243 230